Location: Rancho Del Sol Observatory
(38.7214°N, 120.6350°W)
Time: 03:52:46
(UTC-07:00)

Cosmos 2221 Rocket - Visible Passes

Search period start: 24 June 2018 00:00
Search period end: 04 July 2018 00:00
Orbit: 619 x 649 km, 82.5° (Epoch: 23 June)

Date Brightness Start Highest point End Pass type
(mag) Time Alt. Az. Time Alt. Az. Time Alt. Az.
24 Jun 3.5 03:07:07 10° N 03:11:34 84° E 03:12:50 47° SSE visible
25 Jun 6.0 01:52:41 10° NE 01:55:18 15° ENE 01:57:03 13° E visible
25 Jun 4.0 03:29:27 10° NNW 03:33:41 43° W 03:34:29 39° WSW visible
26 Jun 5.0 02:13:45 10° NNE 02:17:42 31° ENE 02:18:44 28° ESE visible
26 Jun 5.0 03:52:22 10° NW 03:55:40 21° W 03:56:10 20° W visible
27 Jun 3.7 02:35:32 10° N 02:39:59 67° E 02:40:26 62° ESE visible
28 Jun 6.2 01:21:46 10° NE 01:23:36 12° ENE 01:24:44 11° E visible
28 Jun 3.7 02:57:46 10° NNW 03:02:08 55° W 03:02:11 55° W visible
29 Jun 5.3 01:42:21 10° NNE 01:46:03 25° ENE 01:46:30 25° E visible
29 Jun 4.9 03:20:28 10° NNW 03:23:57 25° W 03:23:57 25° W visible
30 Jun 4.1 02:04:00 10° N 02:08:16 53° ENE 02:08:16 53° ENE visible
30 Jun 5.8 03:44:17 10° WNW 03:45:44 12° W 03:45:44 12° W visible
01 Jul 3.8 02:26:06 10° NNW 02:30:05 63° NW 02:30:05 63° NW visible
02 Jul 5.6 01:11:02 10° NNE 01:14:25 20° ENE 01:14:27 20° ENE visible
02 Jul 4.8 02:48:39 10° NNW 02:51:54 30° WNW 02:51:54 30° WNW visible
03 Jul 4.6 01:32:30 10° N 01:36:17 40° ENE 01:36:17 40° ENE visible
03 Jul 5.7 03:11:56 10° NW 03:13:45 15° WNW 03:13:45 15° WNW visible
